FW6291 Weather Reports


time (UTC)temp
F
wind
direction
speed
knots
gust
knots
rain 1hr
in
rain 24hr
in
rain mn
in
humidity
%
barometer
mb
20260902092448 62 80 0.0 0.0 0.00 0.00 0.00 80 1016.5
20260902091446 62 80 0.0 0.0 0.00 0.00 0.00 80 1016.4
20260902090445 63 80 0.0 0.0 0.00 0.00 0.00 79 1016.4
20260902084443 63 80 0.0 0.0 0.00 0.00 0.00 78 1016.6
20260902083442 64 80 0.0 0.0 0.00 0.00 0.00 78 1016.6
20260902081440 64 86 0.0 0.0 0.00 0.00 0.00 78 1016.5
20260902080439 64 86 0.0 0.0 0.00 0.00 0.00 78 1016.5
20260902075438 63 86 0.0 0.0 0.00 0.00 0.00 78 1016.5
20260902074437 63 85 0.0 0.0 0.00 0.00 0.00 75 1016.5
20260902073437 64 85 0.0 0.0 0.00 0.00 0.00 75 1016.5
20260902072436 64 85 0.0 0.0 0.00 0.00 0.00 74 1016.3
20260902071434 64 85 0.0 0.0 0.00 0.00 0.00 74 1016.1
20260902070433 65 85 0.0 2.6 0.00 0.00 0.00 74 1016.1
20260902065432 65 89 0.0 0.0 0.00 0.00 0.00 73 1016.0
20260902064431 65 90 0.0 0.9 0.00 0.00 0.00 73 1016.0
20260902063430 64 68 0.0 0.0 0.00 0.00 0.00 72 1016.0
20260902062429 64 101 0.0 0.0 0.00 0.00 0.00 66 1015.9
20260902061428 64 101 0.0 0.0 0.00 0.00 0.00 64 1015.8
20260902060427 64 101 0.0 0.0 0.00 0.00 0.00 63 1015.7
20260902055426 64 102 0.0 0.0 0.00 0.00 0.00 65 1015.7
20260902054425 64 101 0.0 0.0 0.00 0.00 0.00 61 1015.7
20260902053424 65 102 0.0 0.0 0.00 0.00 0.00 61 1015.7
20260902052423 66 101 0.0 0.0 0.00 0.00 0.00 66 1015.7
20260902051422 66 101 0.0 0.0 0.00 0.00 0.00 72 1015.7
20260902050421 67 101 0.0 0.9 0.00 0.00 0.00 73 1015.5
20260902045420 67 108 0.0 0.0 0.00 0.00 0.00 72 1015.4
20260902044419 67 101 0.0 0.0 0.00 0.00 0.00 69 1015.4
20260902043418 67 101 0.0 0.0 0.00 0.00 0.00 64 1015.4
20260902042417 67 101 0.0 0.0 0.00 0.00 0.00 67 1015.2
20260902041416 68 101 0.0 0.0 0.00 0.00 0.00 64 1015.0
20260902040415 68 101 0.0 0.0 0.00 0.00 0.00 60 1015.0
20260902035413 69 101 0.0 0.0 0.00 0.00 0.00 64 1014.9
20260902034413 70 98 0.0 0.0 0.00 0.00 0.00 65 1014.8
20260902032410 71 118 0.0 0.0 0.00 0.00 0.00 66 1014.6
20260902031410 71 106 0.0 0.9 0.00 0.00 0.00 66 1014.6
20260902030409 72 131 0.0 0.9 0.00 0.00 0.00 65 1014.5
20260902025407 72 123 0.0 0.9 0.00 0.00 0.00 63 1014.4
20260902024407 73 108 0.0 3.5 0.00 0.00 0.00 61 1014.2
20260902023405 74 93 0.0 0.9 0.00 0.00 0.00 58 1014.2
20260902022404 74 138 0.9 0.9 0.00 0.00 0.00 54 1014.0
20260902021404 75 280 0.0 0.9 0.00 0.00 0.00 51 1014.1
20260902020402 76 122 0.0 4.3 0.00 0.00 0.00 46 1014.0
20260902015401 77 142 1.7 4.3 0.00 0.00 0.00 45 1014.1
20260902014400 78 126 0.0 6.1 0.00 0.00 0.00 44 1014.1
20260902013359 79 127 1.7 3.5 0.00 0.00 0.00 40 1014.1
20260902012358 80 119 0.9 4.3 0.00 0.00 0.00 36 1014.1
20260902011357 81 95 0.0 2.6 0.00 0.00 0.00 35 1014.1
20260902010356 83 78 0.0 1.7 0.00 0.00 0.00 34 1014.2
20260902005355 84 123 0.0 1.7 0.00 0.00 0.00 31 1014.3
20260902004354 84 148 0.0 3.5 0.00 0.00 0.00 30 1014.2
20260902003353 85 97 0.0 3.5 0.00 0.00 0.00 28 1014.3
20260902002352 86 114 0.0 3.5 0.00 0.00 0.00 25 1014.3
20260902000352 86 106 0.9 2.6 0.00 0.00 0.00 31 1014.4
20260901235349 87 100 0.0 1.7 0.00 0.00 0.00 32 1014.4
20260901234348 87 210 0.0 1.7 0.00 0.00 0.00 31 1014.4
20260901233347 87 114 0.0 2.6 0.00 0.00 0.00 31 1014.4
20260901232346 87 91 0.0 1.7 0.00 0.00 0.00 30 1014.4
20260901231345 87 123 0.0 2.6 0.00 0.00 0.00 29 1014.4
20260901230345 87 179 0.0 2.6 0.00 0.00 0.00 29 1014.5
20260901225343 88 191 0.0 5.2 0.00 0.00 0.00 31 1014.6
20260901224343 88 91 0.0 1.7 0.00 0.00 0.00 33 1014.6
20260901223341 88 83 0.0 3.5 0.00 0.00 0.00 34 1014.6
20260901222340 89 159 0.0 3.5 0.00 0.00 0.00 33 1014.6
20260901221339 89 158 0.0 2.6 0.00 0.00 0.00 31 1014.6
20260901215337 89 115 0.0 1.7 0.00 0.00 0.00 35 1014.8
20260901214336 88 32 0.0 4.3 0.00 0.00 0.00 35 1014.9
20260901213335 89 133 0.0 0.9 0.00 0.00 0.00 37 1014.9
20260901212334 88 75 0.0 3.5 0.00 0.00 0.00 38 1015.0
20260901211333 87 165 0.0 4.3 0.00 0.00 0.00 41 1015.1
20260901210332 87 210 0.0 1.7 0.00 0.00 0.00 40 1015.1
20260901205331 86 127 0.0 3.5 0.00 0.00 0.00 41 1015.1
20260901204330 86 133 0.0 4.3 0.00 0.00 0.00 40 1015.2
20260901203329 86 150 0.9 2.6 0.00 0.00 0.00 39 1015.2
20260901202328 86 137 0.0 6.1 0.00 0.00 0.00 42 1015.2
20260901201327 85 152 0.0 2.6 0.00 0.00 0.00 41 1015.3
20260901200326 85 281 0.0 3.5 0.00 0.00 0.00 43 1015.4
20260901195325 84 210 0.0 4.3 0.00 0.00 0.00 44 1015.6
20260901194324 84 92 0.0 2.6 0.00 0.00 0.00 43 1015.8
20260901193323 83 113 1.7 4.3 0.00 0.00 0.00 46 1015.9
20260901192322 83 163 0.9 4.3 0.00 0.00 0.00 49 1015.9
20260901191321 83 145 0.0 4.3 0.00 0.00 0.00 50 1016.0
20260901190320 82 238 0.0 3.5 0.00 0.00 0.00 53 1016.0
20260901182316 81 224 0.0 4.3 0.00 0.00 0.00 55 1016.3
20260901181315 81 131 0.0 2.6 0.00 0.00 0.00 57 1016.4
20260901180314 80 216 0.0 2.6 0.00 0.00 0.00 59 1016.4
20260901175313 79 226 0.0 2.6 0.00 0.00 0.00 60 1016.4
20260901174312 79 257 0.9 0.9 0.00 0.00 0.00 61 1016.5
20260901172310 77 218 0.0 3.5 0.00 0.00 0.00 63 1016.3
20260901171309 76 104 3.5 3.5 0.00 0.00 0.00 64 1016.1
20260901165307 76 110 0.0 3.5 0.00 0.00 0.00 64 1016.2
20260901164306 75 160 0.0 2.6 0.00 0.00 0.00 67 1016.2
20260901163305 75 243 0.0 1.7 0.00 0.00 0.00 68 1016.3
20260901162306 75 161 0.0 1.7 0.00 0.00 0.00 69 1016.4
20260901161303 74 230 0.0 0.9 0.00 0.00 0.00 69 1016.4
20260901160302 74 124 0.0 0.0 0.00 0.00 0.00 69 1016.3
20260901155301 74 108 0.0 0.0 0.00 0.00 0.00 71 1016.3
20260901152258 71 90 0.0 0.0 0.00 0.00 0.00 73 1016.3
20260901151257 70 101 0.0 0.0 0.00 0.00 0.00 74 1016.1
20260901150256 67 98 0.0 0.9 0.00 0.00 0.00 79 1015.9
20260901144254 63 96 0.0 0.0 0.00 0.00 0.00 93 1015.6
20260901143253 60 96 0.0 0.0 0.00 0.00 0.00 92 1015.5
20260901142252 62 101 0.0 0.0 0.00 0.00 0.00 89 1015.4
20260901141252 62 101 0.0 0.0 0.00 0.00 0.00 89 1015.5
20260901135249 62 101 0.0 0.0 0.00 0.00 0.00 89 1015.3
20260901134249 62 101 0.0 0.0 0.00 0.00 0.00 89 1015.2
20260901133248 62 101 0.0 0.0 0.00 0.00 0.00 89 1015.1
20260901132246 62 101 0.0 0.0 0.00 0.00 0.00 89 1015.1
20260901131245 62 101 0.0 0.0 0.00 0.00 0.00 89 1015.1
20260901130244 62 101 0.0 0.0 0.00 0.00 0.00 89 1015.0
20260901125243 62 101 0.0 0.0 0.00 0.00 0.00 89 1014.9
20260901124242 62 101 0.0 0.0 0.00 0.00 0.00 89 1014.8
20260901123241 62 101 0.0 0.0 0.00 0.00 0.00 89 1014.9
20260901121239 62 101 0.0 0.0 0.00 0.00 0.00 89 1015.0
20260901120238 62 101 0.0 0.0 0.00 0.00 0.00 89 1014.9
20260901115237 62 101 0.0 0.0 0.00 0.00 0.00 89 1014.7
20260901114237 62 101 0.0 0.0 0.00 0.00 0.00 89 1014.7
20260901112234 61 96 0.0 0.0 0.00 0.00 0.00 89 1014.6
20260901110232 62 96 0.0 0.0 0.00 0.00 0.00 89 1014.9
20260901105231 62 96 0.0 0.0 0.00 0.00 0.00 89 1014.9
20260901104230 62 96 0.0 0.0 0.00 0.00 0.00 89 1014.9
20260901103229 62 96 0.0 0.0 0.00 0.00 0.00 89 1014.9
20260901102228 62 96 0.0 0.0 0.00 0.00 0.00 88 1015.0
20260901101227 62 96 0.0 0.0 0.00 0.00 0.00 89 1015.1
20260901100226 62 96 0.0 0.0 0.00 0.00 0.00 88 1015.2
20260901095225 62 96 0.0 0.0 0.00 0.00 0.00 88 1015.1
20260901094224 62 96 0.0 0.0 0.00 0.00 0.00 88 1014.9
20260901093223 62 96 0.0 0.0 0.00 0.00 0.00 88 1014.9